Time,TemperatureF,DewpointF,PressureIn,WindDirection,WindDirectionDegrees,WindSpeedMPH,WindSpeedGustMPH,Humidity,HourlyPrecipIn,Conditions,Clouds,dailyrainin,SoftwareType,DateUTC
2013-10-19 00:13:00,52.0,51.0,29.97,WSW,255,0.0,0.0,97,0.00,,,0.02,,2013-10-19 04:13:00,
2013-10-19 00:24:00,52.0,51.0,29.97,WSW,255,0.0,0.0,97,0.00,,,0.02,,2013-10-19 04:24:00,
2013-10-19 00:44:00,52.0,51.0,29.97,WSW,255,0.0,0.0,97,0.00,,,0.02,,2013-10-19 04:44:00,
2013-10-19 00:54:00,52.0,51.0,29.98,WSW,246,0.0,0.0,98,0.00,,,0.02,,2013-10-19 04:54:00,
2013-10-19 01:13:00,52.0,51.0,29.97,WSW,246,0.0,0.0,98,0.00,,,0.02,,2013-10-19 05:13:00,
2013-10-19 01:23:00,52.0,51.0,29.97,WSW,247,0.0,0.0,98,0.00,,,0.02,,2013-10-19 05:23:00,
2013-10-19 01:42:00,52.0,51.0,29.97,WSW,239,0.0,2.0,97,0.00,,,0.02,,2013-10-19 05:42:00,
2013-10-19 01:52:00,52.0,51.0,29.96,SW,233,0.0,1.0,97,0.00,,,0.02,,2013-10-19 05:52:00,
2013-10-19 02:12:00,52.0,51.0,29.96,WSW,246,0.0,1.0,97,0.00,,,0.02,,2013-10-19 06:12:00,
2013-10-19 02:22:00,52.0,51.0,29.96,WSW,245,0.0,1.0,97,0.00,,,0.02,,2013-10-19 06:22:00,
2013-10-19 02:42:00,52.0,51.0,29.96,WSW,251,0.0,1.0,97,0.00,,,0.02,,2013-10-19 06:42:00,
2013-10-19 02:52:00,52.0,51.0,29.96,West,264,0.0,2.0,97,0.00,,,0.02,,2013-10-19 06:52:00,
2013-10-19 03:11:00,52.0,51.0,29.95,West,264,0.0,1.0,96,0.00,,,0.02,,2013-10-19 07:11:00,
2013-10-19 03:22:00,51.0,50.0,29.94,ESE,118,0.0,1.0,96,0.00,,,0.00,,2013-10-19 07:22:00,
2013-10-19 03:42:00,52.0,51.0,29.94,WSW,246,0.0,1.0,96,0.00,,,0.00,,2013-10-19 07:42:00,
2013-10-19 03:53:00,52.0,51.0,29.94,WSW,245,0.0,0.0,96,0.00,,,0.00,,2013-10-19 07:53:00,
2013-10-19 04:11:00,51.0,50.0,29.93,WSW,246,0.0,0.0,97,0.00,,,0.00,,2013-10-19 08:11:00,
2013-10-19 04:22:00,51.0,50.0,29.93,SW,224,0.0,1.0,97,0.00,,,0.00,,2013-10-19 08:22:00,
2013-10-19 04:42:00,52.0,51.0,29.93,SW,219,0.0,1.0,97,0.00,,,0.00,,2013-10-19 08:42:00,
2013-10-19 04:52:00,52.0,51.0,29.93,SW,227,0.0,0.0,96,0.00,,,0.00,,2013-10-19 08:52:00,
2013-10-19 05:12:00,52.0,51.0,29.93,WSW,250,0.0,2.0,96,0.00,,,0.00,,2013-10-19 09:12:00,
2013-10-19 05:21:00,52.0,51.0,29.93,WSW,240,0.0,1.0,95,0.00,,,0.00,,2013-10-19 09:21:00,
2013-10-19 05:43:00,52.0,51.0,29.93,SW,222,0.0,1.0,95,0.00,,,0.00,,2013-10-19 09:43:00,
2013-10-19 05:54:00,52.0,50.0,29.92,SW,226,0.0,1.0,94,0.00,,,0.00,,2013-10-19 09:54:00,
2013-10-19 06:13:00,52.0,51.0,29.92,SW,231,0.0,1.0,95,0.00,,,0.00,,2013-10-19 10:13:00,
2013-10-19 06:23:00,52.0,50.0,29.91,West,274,0.0,5.0,93,0.00,,,0.00,,2013-10-19 10:23:00,
2013-10-19 06:42:00,52.0,49.0,29.92,WSW,247,0.0,3.0,90,0.00,,,0.00,,2013-10-19 10:42:00,
2013-10-19 06:53:00,52.0,49.0,29.91,WSW,252,0.0,4.0,90,0.00,,,0.00,,2013-10-19 10:53:00,
2013-10-19 07:12:00,52.0,49.0,29.92,WSW,250,1.0,5.0,90,0.00,,,0.00,,2013-10-19 11:12:00,
2013-10-19 07:22:00,52.0,49.0,29.92,SW,235,1.0,4.0,89,0.00,,,0.00,,2013-10-19 11:22:00,
2013-10-19 07:42:00,52.0,49.0,29.92,WSW,240,0.0,5.0,90,0.00,,,0.00,,2013-10-19 11:42:00,
2013-10-19 07:52:00,52.0,49.0,29.92,SW,227,1.0,5.0,91,0.00,,,0.00,,2013-10-19 11:52:00,
2013-10-19 08:12:00,52.0,50.0,29.91,WSW,252,0.0,5.0,92,0.00,,,0.00,,2013-10-19 12:12:00,
2013-10-19 08:22:00,52.0,50.0,29.91,WSW,239,2.0,7.0,92,0.00,,,0.00,,2013-10-19 12:22:00,
2013-10-19 08:43:00,52.0,50.0,29.92,WSW,254,2.0,5.0,93,0.00,,,0.00,,2013-10-19 12:43:00,
2013-10-19 08:52:00,52.0,50.0,29.91,SW,224,0.0,4.0,94,0.00,,,0.00,,2013-10-19 12:52:00,
2013-10-19 09:12:00,52.0,50.0,29.92,SSW,210,1.0,4.0,93,0.00,,,0.00,,2013-10-19 13:12:00,
2013-10-19 09:22:00,52.0,50.0,29.92,NW,314,0.0,6.0,93,0.00,,,0.00,,2013-10-19 13:22:00,
2013-10-19 09:42:00,52.0,50.0,29.93,SSW,195,0.0,6.0,93,0.00,,,0.00,,2013-10-19 13:42:00,
2013-10-19 09:52:00,53.0,50.0,29.92,WSW,240,0.0,4.0,91,0.00,,,0.00,,2013-10-19 13:52:00,
2013-10-19 10:11:00,53.0,49.0,29.92,SW,234,0.0,5.0,87,0.00,,,0.00,,2013-10-19 14:11:00,
2013-10-19 10:22:00,53.0,48.0,29.91,South,186,0.0,4.0,83,0.00,,,0.00,,2013-10-19 14:22:00,
2013-10-19 10:42:00,54.0,49.0,29.92,SSW,197,0.0,1.0,83,0.00,,,0.00,,2013-10-19 14:42:00,
2013-10-19 10:52:00,54.0,51.0,29.91,SSW,213,0.0,1.0,91,0.00,,,0.00,,2013-10-19 14:52:00,
2013-10-19 11:11:00,55.0,52.0,29.93,WSW,254,0.0,1.0,91,0.00,,,0.00,,2013-10-19 15:11:00,
2013-10-19 11:22:00,55.0,52.0,29.92,SW,232,0.0,3.0,91,0.00,,,0.00,,2013-10-19 15:22:00,
2013-10-19 11:44:00,55.0,52.0,29.92,WSW,245,0.0,2.0,89,0.00,,,0.00,,2013-10-19 15:44:00,
2013-10-19 11:55:00,55.0,52.0,29.92,SSW,203,0.0,2.0,88,0.00,,,0.00,,2013-10-19 15:55:00,
2013-10-19 12:14:00,56.0,53.0,29.91,West,269,0.0,1.0,89,0.00,,,0.00,,2013-10-19 16:14:00,
2013-10-19 12:24:00,56.0,51.0,29.91,West,266,0.0,1.0,84,0.00,,,0.00,,2013-10-19 16:24:00,
2013-10-19 12:43:00,57.0,49.0,29.91,SSE,152,0.0,2.0,75,0.00,,,0.00,,2013-10-19 16:43:00,
2013-10-19 12:53:00,56.0,46.0,29.91,NW,312,0.0,5.0,69,0.00,,,0.00,,2013-10-19 16:53:00,
2013-10-19 13:13:00,56.0,45.0,29.90,SW,224,0.0,7.0,67,0.00,,,0.00,,2013-10-19 17:13:00,
2013-10-19 13:22:00,56.0,45.0,29.90,SW,234,1.0,3.0,67,0.00,,,0.00,,2013-10-19 17:22:00,
2013-10-19 13:43:00,56.0,46.0,29.88,SW,221,0.0,2.0,70,0.00,,,0.00,,2013-10-19 17:43:00,
2013-10-19 13:52:00,57.0,49.0,29.88,NNW,327,0.0,0.0,74,0.00,,,0.00,,2013-10-19 17:52:00,
2013-10-19 14:12:00,57.0,47.0,29.87,South,170,0.0,2.0,70,0.00,,,0.00,,2013-10-19 18:12:00,
2013-10-19 14:22:00,57.0,49.0,29.88,SSW,209,1.0,8.0,74,0.00,,,0.00,,2013-10-19 18:22:00,
2013-10-19 14:42:00,58.0,46.0,29.86,WSW,240,1.0,3.0,65,0.00,,,0.00,,2013-10-19 18:42:00,
2013-10-19 14:52:00,59.0,45.0,29.87,SSW,212,3.0,7.0,59,0.00,,,0.00,,2013-10-19 18:52:00,
2013-10-19 15:12:00,60.0,44.0,29.88,WSW,245,0.0,7.0,56,0.00,,,0.00,,2013-10-19 19:12:00,
2013-10-19 15:22:00,58.0,44.0,29.87,WSW,258,1.0,7.0,60,0.00,,,0.00,,2013-10-19 19:22:00,
2013-10-19 15:42:00,56.0,47.0,29.88,South,188,0.0,10.0,73,0.00,,,0.00,,2013-10-19 19:42:00,
2013-10-19 15:52:00,56.0,48.0,29.87,WSW,255,0.0,5.0,74,0.00,,,0.00,,2013-10-19 19:52:00,
2013-10-19 16:12:00,57.0,48.0,29.88,ENE,58,1.0,6.0,71,0.00,,,0.00,,2013-10-19 20:12:00,
2013-10-19 16:22:00,58.0,45.0,29.87,SSE,150,2.0,8.0,63,0.00,,,0.00,,2013-10-19 20:22:00,
2013-10-19 16:42:00,58.0,47.0,29.88,SSW,199,1.0,4.0,68,0.00,,,0.00,,2013-10-19 20:42:00,
2013-10-19 16:52:00,58.0,47.0,29.88,SE,141,2.0,4.0,66,0.00,,,0.00,,2013-10-19 20:52:00,
2013-10-19 17:11:00,58.0,47.0,29.88,North,4,0.0,4.0,68,0.00,,,0.00,,2013-10-19 21:11:00,
2013-10-19 17:22:00,57.0,48.0,29.88,SSE,149,1.0,7.0,71,0.00,,,0.00,,2013-10-19 21:22:00,
2013-10-19 17:44:00,56.0,46.0,29.89,WSW,240,0.0,3.0,68,0.00,,,0.00,,2013-10-19 21:44:00,
2013-10-19 17:54:00,57.0,46.0,29.89,SW,236,1.0,7.0,67,0.00,,,0.00,,2013-10-19 21:54:00,
2013-10-19 18:14:00,57.0,45.0,29.89,North,352,0.0,3.0,64,0.00,,,0.00,,2013-10-19 22:14:00,
2013-10-19 18:24:00,56.0,44.0,29.89,SE,131,0.0,2.0,64,0.00,,,0.00,,2013-10-19 22:24:00,
2013-10-19 18:34:00,56.0,44.0,29.89,SE,131,0.0,2.0,64,0.00,,,0.00,,2013-10-19 22:34:00,
2013-10-19 18:43:00,56.0,44.0,29.89,SE,131,0.0,2.0,64,0.00,,,0.00,,2013-10-19 22:43:00,
2013-10-19 18:53:00,53.0,42.0,29.89,WNW,295,0.0,5.0,67,0.00,,,0.00,,2013-10-19 22:53:00,
2013-10-19 19:12:00,52.0,42.0,29.89,SSW,213,0.0,4.0,68,0.00,,,0.00,,2013-10-19 23:12:00,
2013-10-19 19:22:00,52.0,42.0,29.90,SW,231,0.0,5.0,68,0.00,,,0.00,,2013-10-19 23:22:00,
2013-10-19 19:42:00,52.0,43.0,29.90,SSW,205,1.0,6.0,72,0.00,,,0.00,,2013-10-19 23:42:00,
2013-10-19 19:53:00,51.0,43.0,29.91,SSW,197,2.0,11.0,73,0.00,,,0.00,,2013-10-19 23:53:00,
2013-10-19 20:11:00,51.0,43.0,29.90,SSW,199,1.0,9.0,75,0.00,,,0.00,,2013-10-20 00:11:00,
2013-10-19 20:23:00,51.0,43.0,29.90,NE,56,2.0,7.0,75,0.00,,,0.00,,2013-10-20 00:23:00,
2013-10-19 20:42:00,51.0,43.0,29.90,ENE,77,1.0,5.0,75,0.00,,,0.00,,2013-10-20 00:42:00,
2013-10-19 20:52:00,51.0,44.0,29.90,SSW,192,1.0,8.0,78,0.00,,,0.00,,2013-10-20 00:52:00,
2013-10-19 21:11:00,50.0,44.0,29.90,North,349,1.0,6.0,79,0.00,,,0.00,,2013-10-20 01:11:00,
2013-10-19 21:22:00,50.0,44.0,29.91,SW,230,0.0,7.0,79,0.00,,,0.00,,2013-10-20 01:22:00,
2013-10-19 21:42:00,50.0,44.0,29.91,SSE,150,1.0,9.0,79,0.00,,,0.00,,2013-10-20 01:42:00,
2013-10-19 21:53:00,50.0,44.0,29.90,SSE,155,0.0,4.0,79,0.00,,,0.00,,2013-10-20 01:53:00,
2013-10-19 22:12:00,49.0,43.0,29.91,SSE,160,2.0,6.0,79,0.00,,,0.00,,2013-10-20 02:12:00,
2013-10-19 22:22:00,50.0,42.0,29.91,ESE,123,3.0,14.0,75,0.00,,,0.00,,2013-10-20 02:22:00,
2013-10-19 22:42:00,49.0,42.0,29.91,WNW,288,2.0,8.0,77,0.00,,,0.00,,2013-10-20 02:42:00,
2013-10-19 22:52:00,49.0,41.0,29.91,South,169,1.0,5.0,75,0.00,,,0.00,,2013-10-20 02:52:00,
2013-10-19 23:12:00,48.0,41.0,29.92,WSW,252,0.0,3.0,77,0.00,,,0.00,,2013-10-20 03:12:00,
2013-10-19 23:22:00,48.0,41.0,29.92,SSE,164,0.0,4.0,78,0.00,,,0.00,,2013-10-20 03:22:00,
2013-10-19 23:44:00,47.0,41.0,29.92,SSW,208,0.0,4.0,79,0.00,,,0.00,,2013-10-20 03:44:00,
2013-10-19 23:55:00,47.0,41.0,29.93,North,353,0.0,4.0,79,0.00,,,0.00,,2013-10-20 03:55:00,